Weather History for Houlton, ME

Change the Weather History Date:

Tuesday, April 16, 2013

  Actual Average Record
Temperature  
Mean Temperature 43 °F 39 °F  
Max Temperature 51 °F 50 °F 73 °F (2012)
Min Temperature 34 °F 29 °F 8 °F (1981)
Degree Days  
Heating Degree Days 22 26  
Month to date heating degree days 505 467  
Since 1 July heating degree days 7685 8263  
Cooling Degree Days 0 0  
Month to date cooling degree days 0 0  
Year to date cooling degree days 0 0  
Moisture  
Dew Point 34 °F    
Average Humidity 71    
Maximum Humidity 89    
Minimum Humidity 52    
Precipitation  
Precipitation 0.04 in 0.13 in 1.01 in (2007)
Month to date precipitation 0.92 2.05  
Year to date precipitation 5.09 9.50  
Sea Level Pressure  
Sea Level Pressure 30.14 in    
Wind  
Wind Speed 11 mph (SSW)    
Max Wind Speed 22 mph    
Max Gust Speed 32 mph    
Visibility 10 miles    
Events Rain    
T = Trace of Precipitation, MM = Missing Value Source: NWS Daily Summary

Daily Weather History Graph

Daily Weather History Graph

Search for Another Location

Airport:

Trip Planner

Search our weather history database for the weather conditions in past years. The results will help you decide how hot, cold, wet, or windy it might be!

Date:

Astronomy

Apr. 16, 2013 Rise Set
Actual Time 5:42 AM EDT 7:20 PM EDT
Civil Twilight 5:11 AM EDT 7:51 PM EDT
Nautical Twilight 4:32 AM EDT 8:30 PM EDT
Astronomical Twilight 3:51 AM EDT 9:11 PM EDT
Moon 9:49 AM EDT (4/16) 12:23 AM EDT (4/16)
Length of Visible Light 14h 40m
Length of Day
13h 37m
Waxing Crescent, 33% of the Moon is Illuminated
Apr 16
Waxing Crescent
Apr 18
First Quarter
Apr 25
Full
May 2
Last Quarter
May 9
New

Hourly Weather History & Observations

Time (EDT) Temp. Windchill Dew Point Humidity Pressure Visibility Wind Dir Wind Speed Gust Speed Precip Events Conditions
12:53 AM 37.9 °F 31.5 °F 32.0 °F 79% 30.38 in 10.0 mi South 9.2 mph - N/A   Clear
1:53 AM 37.9 °F 34.4 °F 30.9 °F 76% 30.35 in 10.0 mi South 4.6 mph - N/A   Mostly Cloudy
2:53 AM 36.0 °F 29.6 °F 30.0 °F 79% 30.34 in 10.0 mi South 8.1 mph - N/A   Scattered Clouds
3:53 AM 36.0 °F 30.3 °F 30.0 °F 79% 30.35 in 10.0 mi South 6.9 mph - N/A   Scattered Clouds
4:34 AM 33.8 °F 27.7 °F 30.2 °F 87% 30.33 in 10.0 mi South 6.9 mph - N/A   Mostly Cloudy
4:45 AM 33.8 °F 27.7 °F 30.2 °F 87% 30.33 in 10.0 mi South 6.9 mph - N/A   Overcast
4:53 AM 34.0 °F 28.8 °F 30.0 °F 85% 30.35 in 10.0 mi SSW 5.8 mph - N/A   Overcast
5:53 AM 34.0 °F 26.6 °F 30.9 °F 89% 30.32 in 10.0 mi South 9.2 mph - N/A   Overcast
6:53 AM 35.1 °F 27.9 °F 32.0 °F 89% 30.31 in 10.0 mi South 9.2 mph - N/A   Overcast
7:53 AM 35.6 °F 28.6 °F 32.0 °F 87% 30.27 in 10.0 mi South 9.2 mph 17.3 mph N/A   Overcast
8:53 AM 37.9 °F 30.5 °F 32.0 °F 79% 30.28 in 10.0 mi South 11.5 mph 18.4 mph N/A   Mostly Cloudy
9:01 AM 39.2 °F 32.5 °F 33.8 °F 81% 30.26 in 10.0 mi South 10.4 mph 18.4 mph N/A   Mostly Cloudy
9:19 AM 41.0 °F 35.8 °F 33.8 °F 76% 30.24 in 10.0 mi South 8.1 mph 19.6 mph N/A   Scattered Clouds
9:53 AM 44.1 °F 39.0 °F 33.1 °F 65% 30.25 in 10.0 mi South 9.2 mph 21.9 mph N/A   Partly Cloudy
10:53 AM 45.0 °F 38.5 °F 33.1 °F 63% 30.23 in 10.0 mi South 13.8 mph 23.0 mph N/A   Clear
11:53 AM 48.0 °F - 34.0 °F 58% 30.18 in 10.0 mi South 12.7 mph 21.9 mph N/A   Clear
12:53 PM 50.0 °F - 33.1 °F 52% 30.14 in 10.0 mi South 20.7 mph 32.2 mph N/A   Mostly Cloudy
1:53 PM 50.0 °F - 33.1 °F 52% 30.10 in 10.0 mi South 11.5 mph 18.4 mph N/A   Overcast
2:53 PM 48.9 °F - 33.1 °F 54% 30.06 in 10.0 mi South 13.8 mph 23.0 mph N/A   Overcast
3:53 PM 48.9 °F - 32.0 °F 52% 30.03 in 10.0 mi SSW 17.3 mph 28.8 mph N/A   Overcast
4:53 PM 48.0 °F - 32.0 °F 54% 30.01 in 10.0 mi SSW 16.1 mph 31.1 mph 0.00 in Rain Light Rain
5:53 PM 43.0 °F 35.7 °F 35.1 °F 74% 29.99 in 6.0 mi South 15.0 mph 25.3 mph 0.01 in Rain Light Rain
6:53 PM 42.1 °F 35.7 °F 36.0 °F 79% 29.95 in 10.0 mi South 11.5 mph 20.7 mph 0.01 in   Overcast
7:35 PM 42.8 °F 35.4 °F 35.6 °F 76% 29.91 in 10.0 mi South 15.0 mph 24.2 mph N/A   Overcast
7:53 PM 42.1 °F 35.7 °F 37.0 °F 82% 29.91 in 10.0 mi SSW 11.5 mph 26.5 mph 0.00 in Rain Light Rain
8:53 PM 42.1 °F 35.2 °F 37.9 °F 85% 29.89 in 10.0 mi SSW 12.7 mph 26.5 mph 0.00 in   Overcast
9:53 PM 43.0 °F 36.8 °F 39.0 °F 86% 29.86 in 10.0 mi SSW 11.5 mph 27.6 mph N/A   Overcast
10:53 PM 43.0 °F 37.2 °F 39.0 °F 86% 29.83 in 9.0 mi SSW 10.4 mph 17.3 mph 0.00 in Rain Light Rain
11:19 PM 42.8 °F 37.0 °F 39.2 °F 87% 29.83 in 9.0 mi SW 10.4 mph - 0.00 in Rain Light Rain
11:53 PM 43.0 °F 37.2 °F 39.9 °F 89% 29.84 in 6.0 mi SW 10.4 mph 18.4 mph 0.00 in Rain Light Rain